Temperature
29 29 30 29 29 29 29 30 30 29 29 29 28 27 26 25 24 23 23 22 21 21 21 20 20 20 19 19 19 19 18 18 18 18 17 17 17 17 17 17 17 16 16 16
28 29 29 29 29 29 29 29 29 29 29 29 27 26 25 24 24 23 22 22 21 21 20 20 20 19 19 19 19 18 18 18 18 17 17 17 17 17 17 16 16 16 16 16
28 28 28 28 28 29 29 29 29 29 28 27 27 26 25 24 23 22 22 21 21 20 20 19 19 19 19 19 19 18 18 18 17 17 17 17 17 17 17 16 16 16 15 15
28 27 26 28 28 28 28 28 28 28 28 27 26 25 24 23 22 22 21 21 20 20 19 19 19 19 19 18 18 18 18 17 17 17 17 17 17 16 16 16 16 15 15 15
27 27 27 27 27 27 27 27 27 27 27 26 25 25 24 22 21 21 20 20 19 19 19 19 19 18 18 18 18 18 17 17 17 17 17 17 16 16 16 16 15 15 15 15
27 26 27 27 27 26 26 26 26 25 25 25 25 26 25 21 20 20 19 19 18 19 19 18 18 18 18 17 17 17 17 17 16 17 16 16 16 16 16 15 15 15 15 15
26 26 27 26 25 25 26 25 24 24 24 24 24 24 22 20 19 19 18 18 18 18 18 18 18 18 17 17 17 17 17 17 16 16 16 16 16 15 15 15 15 14 14 14
26 26 26 24 25 25 24 22 23 23 23 22 22 21 20 19 19 18 18 18 18 17 17 17 17 17 17 17 17 17 17 16 16 16 16 16 15 15 15 15 14 14 14 14
25 25 23 23 23 22 21 22 22 22 21 21 20 20 19 19 18 18 17 17 17 17 17 17 17 17 17 17 17 17 16 16 16 15 15 15 15 15 15 14 14 14 14 14
23 24 23 22 21 21 20 21 21 20 20 20 20 19 18 18 18 17 17 17 17 17 17 16 16 16 16 16 16 16 16 16 15 15 15 15 15 14 14 14 14 14 14 14
23 23 22 21 21 20 20 20 20 20 19 19 19 18 18 17 17 17 17 16 16 16 16 16 16 16 16 15 15 15 15 15 15 15 15 14 14 14 14 14 14 13 13 13
23 22 22 21 20 20 20 19 19 19 19 18 18 18 17 17 16 16 16 16 16 16 16 15 15 15 15 15 15 15 15 15 15 15 14 14 14 14 14 13 13 13 13 13
20 20 20 20 19 19 19 19 18 18 18 17 17 17 17 16 16 16 16 16 15 15 15 15 15 15 15 14 15 15 14 14 14 14 14 14 13 13 13 13 13 13 13 12
18 19 19 19 19 18 18 18 18 18 17 17 17 16 16 16 15 15 15 15 15 15 15 14 14 14 14 14 14 14 14 14 14 13 13 13 13 13 13 13 13 13 13 12
18 18 18 18 18 18 17 17 17 17 17 16 16 16 15 15 15 15 14 15 14 14 14 14 14 14 13 13 13 13 14 13 13 13 13 13 13 13 13 13 13 13 12 12
17 17 17 17 17 17 17 17 17 16 16 16 15 15 15 15 14 14 14 14 14 14 14 13 13 13 13 13 13 13 13 13 13 13 13 13 13 13 13 12 12 12 12 12
17 17 17 17 16 16 16 16 16 16 15 15 15 14 14 14 14 14 14 13 13 13 13 13 13 13 13 13 13 13 13 13 12 12 13 13 12 12 12 12 12 12 12 12
16 16 16 16 16 16 15 15 15 15 15 14 14 14 14 14 13 13 13 13 13 13 12 12 12 12 12 12 12 12 13 13 13 12 12 12 12 12 12 12 12 12 12 12
15 15 15 15 15 15 15 14 14 14 14 14 14 13 13 13 13 13 13 12 12 12 12 12 12 12 12 12 12 12 12 12 12 12 12 12 12 12 12 12 11 11 11 11
14 14 14 14 14 14 14 14 14 13 13 13 13 13 13 13 13 12 12 12 12 12 12 12 12 12 11 12 12 12 12 12 12 12 12 12 11 11 11 11 11 11 11 11
14 14 14 14 13 13 13 13 13 13 13 13 13 12 12 12 12 12 12 12 12 12 12 12 12 11 11 11 11 11 11 11 11 11 11 11 11 11 11 10 10 10 10 10
13 13 13 13 13 13 13 12 12 12 12 12 12 12 12 12 12 12 12 12 11 11 11 11 11 11 11 11 11 11 11 11 11 11 10 10 10 10 10 10 10 10 10 10
13 12 12 12 12 12 12 12 12 12 12 12 12 12 12 11 12 12 11 11 11 11 11 11 11 11 11 11 11 10 10 10 10 10 10 10 10 9 9 9 9 9 9 9
12 12 12 12 12 12 12 12 11 11 11 11 11 11 11 11 11 11 11 11 11 11 11 10 10 10 10 10 10 10 10 10 10 9 9 9 9 9 9 9 9 9 8 8
12 12 11 11 11 11 11 11 11 11 11 11 11 11 11 11 11 10 10 10 10 10 10 10 10 10 10 9 9 9 9 9 9 9 9 9 9 9 8 8 8 8 8 8
11 11 11 11 11 11 11 11 11 11 11 11 11 11 10 10 10 10 10 10 10 9 9 9 9 9 9 9 9 9 9 9 8 8 8 8 8 8 8 8 8 8 8 7
11 11 11 11 11 11 11 11 11 11 11 11 10 10 10 10 10 10 10 10 10 9 9 9 9 9 9 9 8 8 8 8 8 8 8 8 8 8 8 7 7 7 7 7
Wind_Speed
6 4 4 6 6 8 9 9 8 5 4 2 2 2 3 3 2 2 2 2 2 2 2 1 1 2 2 3 4 4 4 4 4 3 3 2 2 2 2 2 2 2 2 2
7 5 5 6 6 7 7 7 7 6 3 1 1 3 3 2 2 1 1 2 2 3 2 1 0 1 2 3 3 4 5 4 3 3 3 3 2 2 2 2 2 2 2 3
8 7 7 8 7 7 7 6 6 6 2 1 2 2 2 1 1 1 0 2 2 3 2 2 1 1 2 2 3 4 4 4 4 3 3 3 3 2 3 3 2 2 3 3
6 6 9 3 0 3 4 3 3 2 0 1 2 2 1 1 0 0 1 2 2 2 2 2 1 1 1 2 3 3 4 4 4 4 4 3 3 3 3 3 2 2 3 2
7 9 7 4 2 3 4 4 1 1 0 0 2 2 2 3 3 2 2 2 2 2 2 1 1 0 1 2 2 3 4 4 4 4 4 4 4 3 4 3 3 3 2 2
7 9 8 2 3 1 4 5 2 0 1 1 3 4 1 3 3 3 3 2 2 1 1 1 1 1 2 2 2 2 3 4 4 4 4 4 3 3 3 3 3 3 2 3
10 9 5 3 2 4 6 0 2 0 0 1 2 3 2 2 3 3 2 2 1 1 1 1 1 1 2 1 1 1 2 2 3 3 3 3 2 2 2 3 3 3 3 3
7 9 4 4 2 1 2 3 1 0 1 0 1 2 2 2 2 2 2 2 2 1 1 1 1 1 2 2 1 1 2 2 2 3 3 2 2 2 2 3 3 4 4 4
3 1 4 2 2 2 1 1 0 0 0 0 1 1 1 2 2 2 2 2 2 1 1 1 1 1 2 2 2 2 2 3 3 3 2 2 2 2 3 3 4 4 3 3
2 2 2 1 1 1 1 1 1 1 1 1 1 1 1 1 2 2 3 3 3 2 2 2 2 2 3 2 2 3 3 2 3 3 3 2 2 3 3 3 4 3 3 4
4 2 2 2 1 1 1 1 1 1 1 1 1 1 1 1 2 2 3 3 3 3 2 2 2 2 2 2 2 2 2 2 3 3 3 2 3 2 3 2 2 3 4 4
3 1 2 1 1 1 1 1 1 1 1 1 1 1 2 2 2 2 3 3 3 3 2 2 2 2 2 2 2 2 2 2 3 3 2 3 3 3 1 2 1 2 4 5
1 1 0 0 0 1 0 1 1 1 1 1 2 1 2 2 3 3 3 3 3 3 3 3 2 2 2 2 1 2 2 2 2 2 2 3 3 3 3 3 5 5 5 5
2 2 2 1 1 1 1 1 1 1 1 1 2 2 2 3 3 3 4 4 3 3 3 2 2 2 2 2 2 2 2 2 2 3 3 3 3 4 4 4 3 3 4 6
2 1 2 2 1 1 1 1 1 1 1 2 2 2 2 3 3 3 4 4 3 2 2 2 2 2 2 2 2 2 3 3 2 3 3 4 4 4 4 5 4 4 3 2
2 2 2 2 1 1 0 0 1 1 1 1 2 2 3 3 3 3 3 3 3 3 3 3 3 3 2 2 2 3 2 2 3 3 4 4 4 4 4 4 4 4 4 4
3 3 2 1 1 1 0 1 2 2 2 2 2 2 3 3 3 3 3 3 3 3 3 3 2 2 3 3 3 3 3 2 3 4 4 4 4 4 4 5 4 4 5 3
2 2 1 1 1 1 1 2 2 2 2 2 2 2 2 3 3 3 3 3 2 3 3 3 2 2 3 3 4 4 3 3 3 4 4 4 4 4 5 5 5 5 5 3
2 1 1 1 0 1 1 1 2 2 2 2 1 2 3 3 3 3 3 3 3 3 3 3 2 3 3 3 3 3 4 4 3 3 4 3 4 5 5 5 5 5 4 4
2 1 1 0 0 1 1 1 2 2 2 2 2 2 2 3 3 3 2 3 3 4 3 3 3 3 3 3 4 4 4 4 4 4 3 4 4 4 4 4 5 4 4 4
2 1 1 1 1 1 1 1 1 2 2 2 2 2 2 2 2 2 3 3 3 3 3 2 2 2 3 3 4 4 4 4 4 3 4 3 3 4 4 4 4 3 3 3
1 1 1 1 1 2 1 2 2 2 2 2 2 2 2 2 2 2 2 3 3 3 3 3 3 4 4 5 3 3 4 4 3 3 3 3 3 3 3 3 3 3 3 3
1 1 1 1 1 2 2 2 2 2 2 2 2 3 3 3 2 3 3 3 3 3 3 3 4 3 4 4 3 3 3 3 3 3 3 3 3 3 3 3 3 3 3 4
1 0 0 0 1 1 2 2 2 2 2 3 2 2 3 3 2 3 3 2 2 2 3 2 2 3 4 3 3 3 3 3 3 2 3 3 3 3 3 3 3 3 4 4
0 0 1 0 1 1 1 2 2 2 2 2 2 2 2 2 2 2 3 3 2 2 2 1 0 2 3 2 2 3 3 3 3 3 2 3 3 3 3 4 4 4 4 4
1 0 1 1 1 2 2 2 2 2 2 2 2 2 2 2 2 2 2 3 3 2 3 2 1 1 2 2 2 3 2 2 2 2 3 3 3 3 3 4 4 4 4 3
0 0 0 1 1 2 2 2 2 2 2 2 2 2 2 2 2 3 3 3 2 2 3 3 2 2 2 2 2 2 2 2 2 2 2 3 3 3 3 4 3 3 3 3
Wind_Direction
248 253 245 235 229 223 234 254 265 265 262 252 193 175 163 162 153 114 90 70 57 50 57 71 120 158 172 185 190 189 192 196 196 199 200 213 232 252 264 272 277 288 289 287
225 224 229 238 238 233 235 244 249 258 266 352 113 148 151 159 155 124 74 40 28 27 32 29 73 170 183 190 190 191 198 203 195 198 204 213 221 230 246 259 269 276 276 278
229 217 230 236 239 239 232 236 248 259 275 137 167 166 168 169 176 193 16 19 19 12 1 341 308 201 200 199 191 192 203 206 201 203 212 217 230 230 241 249 254 270 284 288
236 220 239 241 175 246 232 237 266 278 108 159 182 164 138 119 118 344 1 8 15 6 354 339 325 213 195 188 191 188 203 215 215 208 210 217 224 236 242 247 253 260 270 279
242 237 236 199 176 211 227 233 268 258 218 180 151 168 124 64 34 20 18 15 18 17 343 338 325 183 185 185 180 187 203 216 213 205 208 216 223 233 243 246 251 255 262 270
240 249 250 188 122 195 236 214 101 85 190 180 202 237 65 44 23 26 33 32 27 25 11 355 331 212 211 208 203 208 210 210 202 204 210 218 226 232 231 238 249 259 269 277
240 248 243 74 113 202 234 265 71 309 263 226 247 336 50 46 41 45 44 39 33 28 19 3 331 235 224 229 226 221 206 193 196 210 217 222 225 225 225 231 250 261 267 268
237 244 229 78 155 237 5 29 74 219 254 286 41 50 68 57 46 35 26 22 16 10 354 338 312 266 262 268 268 248 226 209 206 219 232 214 212 229 236 240 240 244 247 260
257 298 71 80 58 43 16 10 42 183 85 100 108 90 75 45 34 26 11 353 336 327 327 321 308 280 273 283 273 248 234 220 217 221 226 232 220 226 237 240 250 259 261 269
215 167 109 97 93 75 43 21 21 107 117 99 77 71 56 28 13 9 355 337 326 322 322 326 319 299 279 265 251 240 231 227 216 217 222 223 238 240 247 255 259 260 266 274
216 186 155 143 114 89 77 81 87 86 80 66 62 48 10 343 349 345 336 326 320 318 323 326 325 319 306 285 248 240 239 230 224 224 224 224 230 249 251 262 272 274 273 273
237 198 244 200 104 100 94 97 104 99 74 44 27 6 357 350 340 326 325 322 316 315 316 309 303 301 297 283 257 249 248 248 251 243 234 237 237 237 219 239 200 235 267 281
261 250 301 192 116 112 123 106 106 100 73 19 9 6 352 343 335 330 324 318 315 307 297 290 285 290 295 283 256 254 262 260 264 257 242 244 247 249 249 233 212 221 228 240
163 158 168 166 131 104 118 105 87 74 61 40 20 0 346 341 337 330 319 314 314 300 286 280 285 294 293 275 259 258 261 238 244 251 249 253 255 258 257 260 259 260 224 214
148 182 180 161 136 102 117 121 97 48 34 21 17 5 352 343 335 330 325 319 319 307 298 291 291 302 311 285 265 264 267 266 262 259 250 252 255 259 263 264 266 271 281 234
179 168 141 151 159 131 111 15 314 322 337 346 352 356 352 345 335 330 333 329 319 320 319 299 293 306 301 280 270 262 264 269 266 263 258 252 247 249 256 263 270 278 280 284
185 182 176 194 194 208 288 326 324 319 322 331 335 341 344 340 335 334 331 328 325 319 310 302 306 309 295 283 278 275 274 250 235 262 262 263 262 262 263 263 266 269 273 282
173 173 181 203 230 314 336 331 331 330 324 321 320 322 326 324 323 324 316 312 314 312 313 315 322 307 293 290 289 288 278 271 260 262 265 265 271 273 270 267 266 267 270 256
149 139 124 101 16 301 291 305 318 329 323 309 301 302 304 308 313 319 324 318 304 296 316 327 319 286 292 300 298 278 282 281 279 278 277 268 266 268 270 274 277 276 276 281
153 149 146 143 250 275 280 307 316 315 311 298 293 300 304 314 321 318 314 304 321 342 344 330 301 297 301 302 294 280 280 283 287 287 280 277 278 278 278 280 281 284 285 282
171 188 209 234 261 278 279 289 305 307 301 296 300 298 303 314 316 312 305 311 347 350 337 319 304 316 314 322 279 293 300 297 291 287 286 288 293 296 297 298 301 305 306 307
194 199 213 235 244 252 257 265 285 311 315 310 310 303 302 303 304 310 315 320 332 348 319 316 328 2 346 322 305 311 308 304 302 302 303 303 305 309 312 314 315 316 315 314
152 181 201 234 249 251 255 265 287 306 311 304 296 290 288 301 306 305 303 317 327 352 320 333 6 6 322 298 303 311 316 321 322 324 321 314 315 321 319 313 313 313 314 317
48 46 357 282 253 244 262 285 298 296 291 291 296 298 292 288 293 295 312 359 345 329 314 13 21 314 286 292 307 315 319 321 323 322 316 313 316 317 309 304 307 314 321 321
101 96 103 126 231 264 274 266 264 270 280 291 306 314 303 303 305 317 327 336 355 316 317 34 139 278 282 307 313 313 317 334 332 326 319 318 315 314 316 319 327 326 323 324
80 47 39 339 314 295 284 280 285 290 292 295 304 311 312 318 321 320 314 316 313 302 305 316 308 267 296 311 316 314 314 311 304 308 317 315 316 317 320 325 326 325 324 327
151 239 261 308 329 323 315 308 301 304 311 310 307 315 318 323 325 322 314 312 310 300 305 312 316 309 309 316 320 326 326 319 312 309 314 318 318 314 314 315 319 324 325 325
Height
1487 1485 1486 1488 1489 1490 1492 1490 1493 1493 1493 1494 1496 1501 1504 1506 1508 1510 1511 1511 1512 1512 1512 1512 1512 1512 1512 1513 1514 1514 1516 1517 1517 1518 1518 1518 1519 1519 1519 1518 1518 1517 1516 1515
1491 1487 1487 1490 1488 1488 1489 1489 1490 1491 1493 1493 1498 1501 1504 1506 1507 1508 1510 1510 1511 1511 1511 1511 1511 1511 1511 1511 1512 1513 1514 1515 1515 1516 1516 1516 1516 1516 1516 1516 1515 1515 1514 1513
1492 1488 1490 1495 1489 1487 1488 1487 1488 1491 1493 1495 1498 1501 1503 1505 1507 1508 1509 1510 1510 1510 1510 1510 1510 1510 1509 1510 1510 1510 1511 1512 1513 1513 1514 1514 1514 1514 1514 1514 1513 1513 1512 1511
1489 1495 1507 1491 1485 1486 1488 1489 1488 1490 1493 1496 1499 1502 1504 1505 1506 1507 1508 1509 1509 1509 1509 1509 1509 1508 1508 1508 1508 1508 1509 1510 1511 1510 1511 1511 1511 1512 1511 1511 1511 1510 1509 1508
1490 1494 1492 1489 1488 1488 1490 1492 1491 1492 1495 1497 1499 1500 1502 1505 1506 1507 1508 1508 1508 1508 1508 1508 1507 1507 1506 1506 1506 1507 1507 1508 1508 1508 1508 1508 1508 1508 1509 1509 1508 1508 1507 1506
1492 1497 1498 1489 1488 1491 1492 1495 1495 1496 1496 1498 1499 1497 1501 1505 1505 1506 1507 1507 1507 1507 1507 1506 1506 1505 1505 1505 1505 1505 1506 1506 1506 1506 1506 1506 1505 1505 1505 1505 1505 1505 1505 1504
1491 1493 1487 1488 1490 1492 1497 1496 1497 1497 1498 1499 1500 1500 1503 1504 1505 1505 1506 1506 1506 1506 1505 1505 1504 1504 1504 1504 1503 1503 1504 1504 1504 1504 1504 1503 1503 1503 1502 1502 1502 1502 1501 1501
1489 1493 1493 1492 1490 1492 1496 1497 1497 1498 1499 1500 1501 1502 1503 1504 1504 1505 1505 1505 1505 1504 1504 1503 1503 1503 1503 1502 1502 1502 1502 1502 1502 1502 1502 1502 1501 1500 1500 1500 1499 1499 1498 1498
1488 1491 1493 1494 1495 1497 1498 1498 1498 1499 1500 1501 1501 1502 1503 1503 1504 1504 1504 1503 1503 1503 1502 1502 1502 1501 1501 1501 1501 1500 1500 1500 1499 1500 1499 1499 1498 1498 1497 1497 1497 1497 1496 1495
1490 1490 1493 1495 1496 1497 1498 1499 1499 1500 1500 1501 1501 1502 1502 1502 1503 1503 1502 1502 1501 1501 1500 1500 1500 1500 1500 1499 1498 1498 1497 1497 1497 1497 1497 1496 1496 1496 1495 1495 1494 1494 1493 1492
1490 1492 1494 1496 1497 1498 1498 1499 1499 1500 1501 1501 1501 1501 1501 1501 1501 1501 1500 1500 1499 1499 1498 1498 1497 1497 1497 1497 1496 1495 1495 1494 1494 1494 1494 1493 1493 1493 1492 1492 1491 1491 1490 1490
1488 1492 1493 1495 1497 1498 1498 1499 1500 1500 1500 1501 1501 1501 1500 1500 1500 1499 1498 1498 1497 1496 1496 1495 1495 1495 1494 1494 1493 1493 1492 1492 1492 1492 1491 1491 1490 1490 1488 1488 1488 1487 1486 1486
1492 1493 1495 1496 1497 1498 1498 1499 1499 1500 1500 1500 1500 1500 1500 1499 1498 1497 1496 1496 1495 1494 1493 1493 1492 1492 1492 1491 1491 1490 1490 1489 1489 1489 1488 1488 1488 1487 1486 1486 1485 1484 1483 1482
1493 1494 1495 1496 1497 1498 1498 1498 1499 1499 1499 1499 1499 1499 1498 1498 1497 1495 1494 1493 1492 1491 1491 1491 1490 1490 1489 1489 1489 1488 1488 1488 1487 1486 1486 1486 1485 1485 1484 1484 1483 1481 1480 1479
1493 1494 1495 1496 1496 1497 1497 1498 1498 1498 1498 1499 1498 1498 1497 1496 1495 1494 1493 1491 1491 1490 1489 1489 1488 1488 1487 1487 1486 1486 1486 1486 1485 1484 1483 1483 1482 1482 1482 1481 1480 1479 1478 1477
1493 1494 1494 1495 1496 1496 1497 1497 1497 1497 1497 1497 1497 1497 1496 1495 1494 1492 1491 1490 1489 1488 1487 1487 1486 1486 1485 1485 1485 1484 1483 1483 1482 1481 1481 1480 1479 1479 1478 1477 1476 1475 1475 1474
1492 1492 1493 1494 1495 1495 1496 1496 1496 1496 1496 1496 1496 1495 1494 1493 1492 1491 1490 1489 1487 1486 1485 1485 1484 1484 1483 1483 1483 1482 1481 1480 1479 1479 1478 1477 1477 1476 1475 1474 1473 1472 1472 1471
1491 1492 1493 1494 1494 1494 1494 1495 1495 1495 1495 1494 1494 1493 1492 1491 1490 1489 1488 1487 1485 1484 1484 1483 1482 1481 1481 1480 1480 1480 1479 1478 1477 1476 1475 1475 1474 1473 1473 1472 1470 1470 1469 1468
1491 1492 1493 1493 1493 1494 1494 1494 1494 1494 1494 1493 1493 1492 1491 1490 1489 1488 1486 1485 1484 1483 1482 1481 1480 1480 1479 1478 1477 1477 1476 1476 1475 1474 1473 1472 1471 1470 1469 1468 1467 1467 1466 1465
1490 1491 1492 1492 1492 1493 1493 1493 1493 1493 1492 1492 1491 1490 1489 1488 1487 1486 1485 1484 1483 1482 1481 1479 1478 1478 1477 1476 1475 1474 1474 1473 1472 1471 1470 1469 1468 1467 1466 1465 1465 1464 1463 1462
1489 1490 1490 1490 1491 1491 1491 1491 1491 1491 1490 1490 1489 1489 1488 1487 1486 1485 1483 1482 1481 1480 1479 1477 1477 1476 1475 1473 1472 1472 1471 1470 1469 1468 1468 1467 1466 1465 1464 1463 1462 1461 1460 1460
1488 1488 1489 1489 1489 1489 1489 1490 1489 1489 1488 1488 1487 1487 1486 1485 1484 1483 1482 1481 1480 1478 1477 1476 1475 1474 1472 1471 1471 1470 1469 1468 1467 1466 1465 1464 1463 1463 1462 1461 1460 1459 1459 1458
1486 1487 1487 1487 1487 1487 1487 1488 1488 1487 1486 1486 1485 1485 1484 1483 1483 1482 1480 1480 1478 1476 1475 1475 1473 1472 1470 1470 1469 1468 1467 1466 1465 1464 1463 1462 1462 1461 1460 1459 1459 1458 1457 1456
1485 1485 1485 1485 1485 1486 1486 1486 1485 1485 1485 1484 1484 1483 1482 1481 1480 1480 1479 1477 1476 1474 1473 1472 1470 1469 1468 1467 1466 1465 1464 1464 1463 1462 1462 1461 1460 1459 1458 1458 1457 1456 1455 1454
1484 1484 1484 1484 1484 1484 1484 1484 1483 1483 1483 1482 1482 1480 1480 1479 1479 1478 1477 1475 1473 1472 1471 1470 1468 1467 1466 1465 1464 1463 1463 1462 1461 1460 1460 1459 1458 1457 1457 1456 1455 1454 1453 1452
1483 1483 1483 1483 1483 1483 1483 1482 1482 1481 1481 1480 1479 1478 1478 1477 1476 1475 1474 1473 1472 1470 1469 1468 1466 1465 1464 1463 1462 1461 1461 1460 1459 1459 1458 1457 1456 1456 1455 1454 1454 1453 1451 1450
1482 1482 1482 1482 1482 1482 1481 1481 1480 1479 1479 1478 1478 1477 1476 1475 1475 1474 1473 1472 1470 1469 1468 1467 1465 1464 1463 1462 1461 1460 1459 1458 1457 1457 1456 1456 1455 1454 1453 1453 1452 1451 1450 1448